• En España
  • Lista de países
  • Para 7 días
  • Temperatura del agua
  • Mapa Satelital
  • El tiempo en el mapa
  • Informadores
  • user-avatar
    Iniciar sesión

    Tiempo cada hora Krasnyy Bereg

    Hoy, 14 Agosto, Martes

    Tiempo Temperatura Precipitaciones Viento Presión Humedad
    00:00 +17°C° 0 mm 2 mps 738 mmHg 96%
    01:00 +16°C° 0 mm 2 mps 738 mmHg 97%
    02:00 +15°C° 0 mm 2 mps 738 mmHg 97%
    03:00 +15°C° 0 mm 2 mps 738 mmHg 97%
    04:00 +14°C° 0 mm 1 mps 738 mmHg 97%
    05:00 +15°C° 0 mm 1 mps 739 mmHg 95%
    06:00 +15°C° 0 mm 2 mps 739 mmHg 93%
    07:00 +16°C° 0 mm 2 mps 739 mmHg 92%
    08:00 +17°C° 0 mm 2 mps 739 mmHg 79%
    09:00 +19°C° 0 mm 3 mps 739 mmHg 67%
    10:00 +21°C° 0 mm 4 mps 740 mmHg 55%
    11:00 +21°C° 0 mm 3 mps 740 mmHg 52%
    12:00 +22°C° 0 mm 3 mps 740 mmHg 49%
    13:00 +22°C° 0 mm 3 mps 740 mmHg 46%
    14:00 +22°C° 0 mm 3 mps 740 mmHg 50%
    15:00 +22°C° 0 mm 3 mps 740 mmHg 54%
    16:00 +21°C° 0 mm 2 mps 740 mmHg 58%
    17:00 +19°C° 0,2 mm 2 mps 740 mmHg 66%
    18:00 +19°C° 0,2 mm 1 mps 741 mmHg 75%
    19:00 +18°C° 0,2 mm 1 mps 741 mmHg 83%
    20:00 +16°C° 0 mm 1 mps 741 mmHg 87%
    21:00 +14°C° 0 mm 1 mps 741 mmHg 90%
    22:00 +12°C° 0 mm 0 mps 741 mmHg 94%
    23:00 +12°C° 0 mm 0 mps 741 mmHg 94%

    Mañana, 15 Agosto, Miércoles

    Tiempo Temperatura Precipitaciones Viento Presión Humedad
    00:00 +11°C° 0 mm 0 mps 741 mmHg 95%
    01:00 +11°C° 0 mm 0 mps 742 mmHg 96%
    02:00 +10°C° 0 mm 0 mps 742 mmHg 96%
    03:00 +10°C° 0 mm 0 mps 742 mmHg 96%
    04:00 +10°C° 0 mm 0 mps 742 mmHg 97%
    05:00 +11°C° 0 mm 0 mps 742 mmHg 94%
    06:00 +12°C° 0 mm 0 mps 743 mmHg 92%
    07:00 +14°C° 0 mm 1 mps 743 mmHg 90%
    08:00 +16°C° 0 mm 1 mps 743 mmHg 80%
    09:00 +17°C° 0 mm 2 mps 743 mmHg 70%
    10:00 +19°C° 0 mm 2 mps 743 mmHg 60%
    11:00 +20°C° 0 mm 2 mps 743 mmHg 56%
    12:00 +21°C° 0 mm 3 mps 743 mmHg 51%
    13:00 +22°C° 0 mm 3 mps 743 mmHg 47%
    14:00 +22°C° 0 mm 3 mps 743 mmHg 47%
    15:00 +22°C° 0 mm 3 mps 743 mmHg 47%
    16:00 +22°C° 0 mm 3 mps 743 mmHg 46%
    17:00 +20°C° 0,1 mm 2 mps 743 mmHg 56%
    18:00 +19°C° 0,1 mm 2 mps 743 mmHg 66%
    19:00 +18°C° 0,1 mm 1 mps 743 mmHg 76%
    20:00 +16°C° 0 mm 1 mps 744 mmHg 81%
    21:00 +14°C° 0 mm 1 mps 744 mmHg 87%
    22:00 +13°C° 0 mm 1 mps 744 mmHg 92%
    23:00 +13°C° 0 mm 1 mps 744 mmHg 93%

    Pasado mañana, 16 Agosto, Jueves

    Tiempo Temperatura Precipitaciones Viento Presión Humedad
    00:00 +12°C° 0 mm 1 mps 744 mmHg 93%
    01:00 +12°C° 0 mm 1 mps 744 mmHg 94%
    02:00 +12°C° 0 mm 1 mps 744 mmHg 95%
    03:00 +12°C° 0 mm 1 mps 744 mmHg 96%
    04:00 +11°C° 0 mm 1 mps 744 mmHg 97%
    05:00 +12°C° 0,2 mm 1 mps 744 mmHg 96%
    06:00 +12°C° 0,2 mm 1 mps 744 mmHg 96%
    07:00 +13°C° 0,2 mm 1 mps 744 mmHg 95%
    08:00 +13°C° 1,7 mm 1 mps 743 mmHg 96%
    09:00 +13°C° 1,7 mm 1 mps 743 mmHg 96%
    10:00 +13°C° 1,7 mm 1 mps 743 mmHg 97%
    11:00 +14°C° 0,5 mm 2 mps 743 mmHg 96%
    12:00 +14°C° 0,5 mm 2 mps 742 mmHg 94%
    13:00 +14°C° 0,5 mm 2 mps 742 mmHg 93%
    14:00 +15°C° 0,1 mm 2 mps 742 mmHg 89%
    15:00 +15°C° 0,1 mm 2 mps 742 mmHg 85%
    16:00 +16°C° 0,1 mm 2 mps 742 mmHg 81%
    17:00 +16°C° 0 mm 2 mps 742 mmHg 83%
    18:00 +15°C° 0 mm 1 mps 742 mmHg 85%
    19:00 +15°C° 0 mm 1 mps 742 mmHg 87%
    20:00 +14°C° 0 mm 1 mps 743 mmHg 90%
    21:00 +13°C° 0 mm 1 mps 743 mmHg 93%
    22:00 +12°C° 0 mm 1 mps 743 mmHg 96%
    23:00 +11°C° 0 mm 1 mps 743 mmHg 96%

    17 Agosto, Viernes

    Tiempo Temperatura Precipitaciones Viento Presión Humedad
    00:00 +11°C° 0 mm 1 mps 743 mmHg 97%
    01:00 +10°C° 0 mm 1 mps 744 mmHg 97%
    02:00 +10°C° 0 mm 1 mps 744 mmHg 97%
    03:00 +9°C° 0 mm 1 mps 744 mmHg 96%
    04:00 +9°C° 0 mm 1 mps 745 mmHg 96%
    05:00 +10°C° 0 mm 1 mps 745 mmHg 92%
    06:00 +10°C° 0 mm 2 mps 745 mmHg 88%
    07:00 +12°C° 0 mm 2 mps 745 mmHg 85%
    08:00 +14°C° 0 mm 2 mps 746 mmHg 74%
    09:00 +16°C° 0 mm 3 mps 746 mmHg 63%
    10:00 +18°C° 0 mm 3 mps 746 mmHg 52%
    11:00 +19°C° 0 mm 3 mps 746 mmHg 48%
    12:00 +19°C° 0 mm 4 mps 746 mmHg 44%
    13:00 +20°C° 0 mm 4 mps 746 mmHg 40%
    14:00 +20°C° 0 mm 4 mps 746 mmHg 41%
    15:00 +19°C° 0 mm 4 mps 746 mmHg 42%
    16:00 +19°C° 0 mm 4 mps 747 mmHg 44%
    17:00 +18°C° 0 mm 3 mps 747 mmHg 51%
    18:00 +16°C° 0 mm 3 mps 747 mmHg 58%
    19:00 +15°C° 0 mm 2 mps 747 mmHg 65%
    20:00 +13°C° 0 mm 2 mps 748 mmHg 72%
    21:00 +10°C° 0 mm 2 mps 748 mmHg 79%
    22:00 +8°C° 0 mm 2 mps 748 mmHg 86%
    23:00 +8°C° 0 mm 2 mps 749 mmHg 89%

    18 Agosto, Sábado

    Tiempo Temperatura Precipitaciones Viento Presión Humedad
    00:00 +7°C° 0 mm 2 mps 749 mmHg 91%
    01:00 +6°C° 0 mm 2 mps 749 mmHg 94%
    02:00 +7°C° 0 mm 1 mps 749 mmHg 95%
    03:00 +6°C° 0 mm 1 mps 750 mmHg 96%
    04:00 +6°C° 0 mm 1 mps 750 mmHg 97%
    05:00 +6°C° 0 mm 2 mps 750 mmHg 93%
    06:00 +7°C° 0 mm 2 mps 751 mmHg 88%
    07:00 +8°C° 0 mm 2 mps 751 mmHg 83%
    08:00 +10°C° 0 mm 3 mps 751 mmHg 75%
    09:00 +11°C° 0 mm 3 mps 751 mmHg 67%
    10:00 +13°C° 0 mm 3 mps 751 mmHg 59%
    11:00 +14°C° 0 mm 3 mps 751 mmHg 56%
    12:00 +16°C° 0 mm 3 mps 751 mmHg 52%
    13:00 +17°C° 0 mm 3 mps 751 mmHg 48%
    14:00 +17°C° 0 mm 3 mps 751 mmHg 47%
    15:00 +17°C° 0 mm 3 mps 751 mmHg 46%
    16:00 +18°C° 0 mm 3 mps 751 mmHg 46%
    17:00 +17°C° 0 mm 2 mps 751 mmHg 52%
    18:00 +15°C° 0 mm 2 mps 751 mmHg 59%
    19:00 +14°C° 0 mm 1 mps 751 mmHg 66%
    20:00 +13°C° 0 mm 1 mps 751 mmHg 71%
    21:00 +11°C° 0 mm 1 mps 751 mmHg 77%
    22:00 +9°C° 0 mm 1 mps 751 mmHg 82%
    23:00 +8°C° 0 mm 0 mps 752 mmHg 84%

    19 Agosto, Domingo

    Tiempo Temperatura Precipitaciones Viento Presión Humedad
    00:00 +7°C° 0 mm 0 mps 752 mmHg 87%
    01:00 +6°C° 0 mm 0 mps 752 mmHg 89%
    02:00 +6°C° 0 mm 0 mps 752 mmHg 89%
    03:00 +6°C° 0 mm 0 mps 752 mmHg 90%
    04:00 +6°C° 0 mm 0 mps 752 mmHg 91%
    05:00 +7°C° 0 mm 0 mps 752 mmHg 83%
    06:00 +9°C° 0 mm 0 mps 752 mmHg 76%
    07:00 +11°C° 0 mm 0 mps 753 mmHg 69%
    08:00 +13°C° 0 mm 0 mps 752 mmHg 63%
    09:00 +16°C° 0 mm 1 mps 752 mmHg 56%
    10:00 +19°C° 0 mm 1 mps 752 mmHg 49%
    11:00 +20°C° 0 mm 1 mps 751 mmHg 47%
    12:00 +21°C° 0 mm 1 mps 751 mmHg 45%
    13:00 +21°C° 0 mm 2 mps 751 mmHg 43%
    14:00 +21°C° 0 mm 2 mps 750 mmHg 43%
    15:00 +21°C° 0 mm 2 mps 750 mmHg 44%
    16:00 +22°C° 0 mm 1 mps 750 mmHg 45%
    17:00 +21°C° 0 mm 1 mps 750 mmHg 53%
    18:00 +19°C° 0 mm 1 mps 749 mmHg 61%
    19:00 +18°C° 0 mm 1 mps 749 mmHg 69%
    20:00 +15°C° 0 mm 1 mps 749 mmHg 73%
    21:00 +14°C° 0 mm 1 mps 749 mmHg 77%
    22:00 +12°C° 0 mm 1 mps 749 mmHg 82%
    23:00 +12°C° 0 mm 1 mps 749 mmHg 84%
    Mostrar más